THOR ABLESTAR DEB, 967

Orbit data source: Space-Track

THOR ABLESTAR DEB, 967 is space debris in LEO originally from a launch on Sun, 13 Dec 1964 UTC launched from the Air Force Western Test Range (AFWTR). Debris objects in space refer to the collection of defunct objects orbiting the Earth. Examples of debris include non-operational satellites, rocket bodies, and fragments generated from explosions, collisions, or faulty payload assembly.

Loading next visibility...
Identifier
967, 1964-083F
Orbit
LEO
Country
Flag of USUS
Related business
Manufacturer
Unknown
Mission
Spacecraft
Bus & Motor
Unknown
Mass
Unknown
Launch date (UTC)
1964-12-13 (62 years ago)
Launch vehicle
Unknown
Launch site
Air Force Western Test Range (AFWTR)
Object type
Payload
Rocket body
Debris
Shape & HBR
Unknown shape, 0.1 m
Radar Cross Section
Medium (>0.1 m² and <1 m²)

Expand to show TLE details & history
Last TLE update: 6 hours ago

TLE from 6 hours ago
0 THOR ABLESTAR DEB
1 00967U 64083F   26257.25692464  .00000287  00000-0  32836-3 0  9995
2 00967  89.9535 173.3685 0022154 124.6046  28.3067 13.67484484 68158
Epoch: 2026-09-14T06:09Z
TLE epoch observation values (Epoch: 2026-09-14T06:09:58.288Z)
Latitude
27.00348°
Longitude
-92.38776°
Altitude
997.586 km
Speed
7.362 km/s
True Right ascension
23h 33m 22s
True Declination
26° 52' 09"
Sunlit
Object was in full shadow at epoch
Visualization orbit readout
Latitude
Unknown
Longitude
Unknown
Altitude
Unknown
Speed
Unknown
Apparent Right ascension
Unknown
Apparent Declination
Unknown
Sunlit
N/A
Visualization observer readout
Local Sidereal Time
04:19:01
Azimuth
Unknown
Elevation
Unknown
Doppler factor
Unknown
Orbital elements
Apogee altitude
1,021.998 km
Perigee altitude
989.282 km
Semi-major axis
7,383.777 km
Eccentricity
0.00222
Inclination
89.9535°
RAAN
173.3685°
Arg. of periapsis
124.6046°
True anomaly
28.42738°
Mean anomaly
28.3067°
Eccentric anomaly
28.36701°
Mean motion
3.42078 °/min
Orbital period
105.24 mins
BSTAR
0.00032836
Loading maneuver chart data...
Computing Atmospheric mass density...

Documentation

Showing up to 5 results
|